This demonstration page uses our WeatherBlox Daily Observations layout. Learn more.

Left ArrowRight Arrow

Hourly Observations for July 20, 2017

Temp ( °F °C ) Dew Point ( °F °C ) Humidity (%) Winds ( mph kmh ) Pressure ( in mb ) Visibility ( mi km ) Precip ( " mm )
12:53 am 00:53 Clear 77 25 64 17.8 64 64 S 9 15 29.93 1013 10 16 0.00 0.00
1:53 am 01:53 Clear 78 25.6 63 17.2 60 60 SSW 6 9 29.93 1014 10 16 0.00 0.00
2:53 am 02:53 Clear 76 24.4 63 17.2 64 64 S 5 7 29.93 1014 10 16 0.00 0.00
3:53 am 03:53 Clear 71 21.7 65 18.3 81 81 NE 7 11 29.94 1014 10 16 0.00 0.00
4:53 am 04:53 Clear 78 25.6 63 17.2 60 60 S 5 7 29.94 1014 10 16 0.00 0.00
5:53 am 05:53 Clear 72 22.2 65 18.3 79 79 S 5 7 29.97 1015 10 16 0.00 0.00
6:53 am 06:53 Sunny 74 23.3 65 18.3 74 74 Calm 29.96 1015 10 16 0.00 0.00
7:53 am 07:53 Sunny 76 24.4 65 18.3 69 69 S 8 13 29.95 1014 10 16 0.00 0.00
8:53 am 08:53 Sunny 81 27.2 67 19.4 62 62 S 8 13 29.95 1014 10 16 0.00 0.00
9:53 am 09:53 Sunny 81 27.2 68 20 65 65 S 7 11 29.94 1014 10 16 0.00 0.00
10:53 am 10:53 Sunny 83 28.3 68 20 61 61 N 3 6 29.96 1015 10 16 0.00 0.00
11:53 am 11:53 Sunny 86 30 69 20.6 57 57 Calm 29.97 1015 10 16 0.00 0.00
12:53 pm 12:53 Sunny 87 30.6 71 21.7 59 59 ENE 5 7 29.96 1015 10 16 0.00 0.00
1:53 pm 13:53 Sunny 89 31.7 70 21.1 53 53 S 9 15 29.94 1014 10 16 0.00 0.00
2:53 pm 14:53 Sunny 90 32.2 70 21.1 52 52 SE 8 13 29.93 1014 10 16 0.00 0.00
3:53 pm 15:53 Sunny 92 33.3 73 22.8 54 54 ESE 6 9 29.91 1013 10 16 0.00 0.00
4:53 pm 16:53 Sunny 93 33.9 72 22.2 50 50 SE 8 13 29.89 1012 10 16 0.00 0.00
5:53 pm 17:53 Sunny 90 32.2 74 23.3 59 59 SE 9 15 29.87 1012 10 16 0.00 0.00
6:53 pm 18:53 Sunny 91 32.8 74 23.3 57 57 ESE 14 22 29.85 1011 10 16 0.00 0.00
7:53 pm 19:53 Sunny 90 32.2 74 23.3 59 59 E 8 13 29.84 1010 10 16 0.00 0.00
8:53 pm 20:53 Sunny 88 31.1 74 23.3 63 63 E 10 17 29.82 1010 10 16 0.00 0.00
9:53 pm 21:53 Clear 86 30 73 22.8 65 65 SE 10 17 29.83 1010 10 16 0.00 0.00
10:53 pm 22:53 Clear 84 28.9 72 22.2 67 67 SSE 10 17 29.84 1010 10 16 0.00 0.00
11:53 pm 23:53 Clear 82 27.8 70 21.1 67 67 SSE 8 13 29.84 1011 10 16 0.00 0.00

Powered by AerisWeather